Tracking 25195 objects as of 20-Jan-2022
HD Live streaming from Space Station
objects crossing your sky now

STARLINK-2372

Track STARLINK-2372 now!
10-day predictions
STARLINK-2372 is classified as:


NORAD ID: 47912
Int'l Code: 2021-021BE
Perigee: 552.7 km
Apogee: 555.9 km
Inclination: 53.1 °
Period: 95.6 minutes
Semi major axis: 6925 km
RCS: Unknown
Launch date: March 14, 2021
Source: United States (US)
Launch site: AIR FORCE EASTERN TEST RANGE (AFETR)
aabbcc
Your satellite tracking list
Your tracking list is empty




NASA's NSSDC Master Catalog

Two Line Element Set (TLE):
1 47912U 21021BE  22020.02668466  .00001939  00000-0  14903-3 0  9995
2 47912  53.0549 208.7483 0002316  76.0589 284.0657 15.06404745 48167
Source of the keplerian elements: AFSPC